GEFSGL_500_meanwind_222.txt.gz
Wind_Speed
23 23 23 22 21 21 20 19 18 18 18 19 19 19 17 17 16 16 15 14 13 13 12 12 13 14 15 16 18 19 20 21 20 20 22 22 22 23 24 25 26 28 29
20 21 21 20 20 20 19 18 17 17 18 18 18 18 17 16 16 15 14 13 11 10 9 10 10 11 12 14 16 17 18 18 18 20 21 21 21 22 23 23 24 26 27
18 19 19 19 19 18 18 18 17 17 17 17 18 18 17 16 15 15 14 11 10 10 10 10 10 11 12 13 14 15 16 17 18 19 20 21 22 22 22 23 23 25 26
17 18 18 19 18 18 18 17 17 16 17 17 18 17 16 16 15 14 12 11 10 10 10 10 10 11 11 12 13 13 15 15 17 19 20 20 21 21 21 21 22 23 24
16 17 18 19 18 18 17 17 17 17 17 17 17 16 15 15 15 13 12 11 11 11 11 11 11 11 12 11 11 12 13 14 15 17 19 20 20 20 20 21 22 23 24
16 17 18 18 17 17 17 18 18 18 18 17 17 16 15 15 15 13 12 12 12 12 12 12 11 11 11 11 11 11 12 13 14 15 16 18 19 20 20 21 21 22 23
17 17 17 17 17 17 18 19 18 18 18 17 17 16 15 15 15 14 14 13 12 12 12 12 12 11 10 11 11 12 12 13 13 15 16 17 18 19 19 20 21 21 22
17 17 17 18 18 19 19 19 19 18 17 17 17 16 16 16 15 15 14 13 13 13 13 13 12 11 10 10 11 12 13 13 14 14 15 16 17 18 19 20 20 20 21
16 17 17 17 17 18 18 18 18 18 17 17 16 16 17 16 16 15 15 14 14 13 13 12 11 10 10 11 11 11 12 14 15 15 15 15 16 17 17 17 17 18 18
15 16 16 16 17 17 18 19 19 18 17 17 16 17 17 17 17 17 17 16 15 13 12 12 11 11 11 11 12 12 13 14 15 15 14 14 14 15 15 15 16 16 17
14 15 15 16 16 17 18 18 18 18 17 17 17 17 18 18 18 17 18 17 14 13 12 11 11 11 11 12 12 13 13 14 14 15 14 14 14 13 14 14 15 15 16
14 14 15 16 17 17 17 17 17 16 17 17 17 18 18 18 18 18 17 16 15 13 12 10 10 11 12 13 13 14 14 14 14 14 15 15 14 14 14 14 15 15 16
14 15 16 16 17 16 16 16 15 16 16 17 18 18 18 18 18 18 17 16 16 14 12 11 10 11 12 13 14 14 14 14 14 15 16 16 16 16 15 15 15 15 16
14 15 15 16 16 16 16 15 15 15 16 17 17 18 18 18 18 18 17 16 16 15 13 12 11 11 13 13 14 14 14 14 15 16 15 16 16 15 15 15 16 16 17
13 14 14 15 15 16 15 15 15 15 16 17 17 18 18 17 17 18 17 17 16 15 14 13 11 11 12 13 14 14 14 15 16 16 16 17 17 17 17 17 17 18 18
13 13 14 14 14 15 14 14 14 15 16 16 17 17 17 17 18 18 17 17 15 14 14 13 13 12 13 14 14 14 15 16 17 17 17 17 18 18 18 18 18 18 19
13 14 14 14 14 14 13 13 14 15 16 17 17 17 17 17 17 17 16 16 14 13 13 13 13 13 13 14 14 14 15 16 17 17 18 18 19 20 20 19 19 19 19
14 14 14 14 14 14 13 13 14 15 15 16 16 17 17 17 16 16 16 15 14 13 13 13 14 14 14 14 15 15 15 15 16 18 19 19 20 21 22 21 20 20 20
15 14 14 14 14 13 13 14 14 15 16 16 17 17 17 17 16 16 16 15 14 14 13 13 13 14 14 14 14 15 15 16 18 18 19 20 21 23 23 22 21 21 21
16 15 15 15 15 14 13 14 15 15 16 16 16 16 17 17 16 15 15 15 14 14 13 13 13 14 14 14 15 16 16 17 18 19 20 21 22 23 23 22 22 22 22
17 17 17 16 16 15 14 15 15 16 16 16 16 16 16 16 15 15 15 15 14 13 13 13 13 13 14 14 15 16 17 18 18 19 20 21 22 23 24 23 23 22 22
18 18 18 17 16 15 15 15 16 16 16 16 16 16 16 15 15 14 15 14 14 13 13 13 14 14 15 15 16 17 17 18 19 20 21 22 22 23 23 24 23 23 22
18 18 18 17 17 17 16 16 16 17 16 16 16 16 16 15 15 14 14 14 13 13 13 14 14 15 15 15 16 16 17 18 19 21 22 22 22 23 24 24 23 23 22
18 18 18 18 18 18 17 17 17 17 17 17 17 16 15 15 15 14 14 14 13 13 14 14 15 15 15 15 16 16 18 19 20 21 21 21 21 22 23 23 23 22 22
19 19 18 18 17 17 17 17 17 17 17 17 16 15 15 15 14 14 13 13 13 14 14 14 15 15 15 16 16 17 18 19 20 21 21 21 21 21 22 22 22 22 22
18 18 18 18 18 17 17 17 17 17 16 15 15 15 15 15 14 14 14 14 13 13 14 14 15 15 16 16 17 18 18 19 19 20 21 21 21 21 21 22 22 22 22

GEFSGL_500_meanwind_228.txt.gz
Wind_Speed
16 16 16 17 17 16 16 16 15 15 15 16 17 17 18 17 16 15 15 14 14 13 12 12 12 13 14 15 15 16 16 17 18 20 22 22 22 22 23 24 26 26 26
16 15 16 16 16 15 15 14 14 14 15 16 16 17 17 17 16 16 16 15 14 13 12 11 11 11 12 13 14 15 16 17 18 19 20 21 22 22 23 25 26 26 26
15 15 16 15 14 14 15 14 14 15 16 16 17 17 16 16 16 15 15 14 13 12 12 11 11 11 11 12 13 14 15 16 17 18 19 20 21 22 23 24 24 25 25
14 15 15 14 14 14 14 14 15 16 17 17 17 16 15 15 15 15 14 13 12 11 11 11 11 11 12 12 11 12 13 14 15 16 17 18 19 20 22 23 23 23 24
13 14 14 14 14 14 15 15 16 16 17 16 15 14 15 15 15 15 14 13 11 11 11 11 11 10 11 10 10 10 11 12 13 14 14 16 17 18 19 21 21 22 23
13 13 14 15 14 14 14 15 16 16 16 15 15 15 15 15 16 16 14 13 12 11 11 11 11 10 10 10 10 10 10 10 11 11 12 14 15 16 17 19 20 20 20
13 13 14 14 14 14 15 15 15 15 15 15 16 16 16 16 17 17 16 14 12 11 11 11 11 11 11 10 10 9 9 10 11 11 12 13 14 14 15 16 16 17 18
13 13 13 13 13 14 14 14 14 14 14 15 16 17 17 17 17 17 16 14 12 11 10 10 10 9 9 9 9 9 9 9 10 11 12 12 13 14 15 15 15 15 17
12 12 12 12 12 13 14 14 14 14 14 15 16 17 18 18 18 18 16 14 12 11 10 10 9 9 8 8 9 9 9 8 8 10 11 11 11 12 13 13 14 15 15
12 12 12 11 11 12 13 14 13 14 14 15 16 17 18 18 18 17 16 14 13 12 10 10 10 9 9 8 8 8 8 7 8 9 10 11 10 9 10 11 12 13 13
12 12 12 11 11 12 13 13 13 14 15 16 16 18 18 18 18 18 16 14 13 12 11 10 9 10 9 9 8 8 9 9 9 9 10 10 9 9 9 10 12 13 13
11 11 11 10 11 12 12 12 12 13 14 15 16 17 17 17 18 18 17 15 14 12 11 11 10 10 9 8 8 9 9 9 9 9 9 9 9 10 10 11 11 12 14
11 11 11 10 11 11 11 11 12 13 14 15 15 16 17 17 18 18 17 16 14 13 12 12 11 11 10 9 8 8 8 9 9 10 10 9 9 10 11 12 13 14 14
12 12 12 12 12 12 11 11 12 12 13 14 15 16 17 17 17 17 17 16 15 14 13 13 12 11 9 9 8 8 9 9 9 10 10 9 9 10 12 13 14 14 14
13 13 13 13 13 13 12 12 12 14 14 14 15 16 16 16 17 16 16 16 15 14 13 13 12 11 10 9 9 9 9 9 10 10 11 10 11 12 13 14 14 14 15
13 13 13 14 13 13 13 13 14 14 14 14 15 16 16 16 16 16 16 15 14 14 13 12 11 10 10 10 10 10 9 9 9 10 11 11 11 12 14 15 15 16 16
14 14 14 13 14 14 14 14 14 14 15 15 16 16 16 16 16 16 15 15 14 14 13 13 12 11 11 10 10 10 10 10 10 10 11 12 12 13 14 15 16 17 17
15 15 15 14 14 15 15 15 14 15 15 16 16 16 16 16 15 15 14 14 14 14 14 13 12 12 11 11 10 11 11 10 10 11 11 12 12 14 15 16 17 17 17
16 16 16 15 15 15 15 15 15 16 16 16 16 16 16 15 15 14 14 14 14 14 14 14 13 13 12 11 11 12 12 11 11 11 11 12 13 14 15 17 18 18 17
18 17 17 16 16 16 16 16 16 16 16 16 16 16 15 15 14 14 14 14 14 14 14 14 14 13 13 12 11 12 12 12 12 12 12 13 14 15 15 16 18 18 18
18 17 17 17 17 17 17 16 16 16 16 16 16 15 15 15 15 14 14 15 15 15 14 14 14 13 13 12 12 12 12 11 11 11 12 13 14 15 15 16 17 18 18
19 18 18 18 17 17 17 17 17 17 17 16 16 15 15 15 15 14 14 14 15 15 15 15 14 13 13 12 12 11 11 10 11 11 12 13 13 14 15 16 17 18 19
18 18 18 18 18 17 17 16 16 16 15 15 15 15 15 14 14 14 14 14 15 15 15 14 13 13 12 12 12 12 11 11 12 12 12 12 13 14 15 16 17 18 19
19 18 18 18 18 17 17 16 16 15 15 15 15 15 14 14 14 14 14 14 14 13 13 13 13 12 12 11 12 12 11 11 11 12 12 13 14 15 16 17 17 18 19
19 19 19 18 17 17 17 16 16 15 15 14 14 14 14 14 14 13 13 12 12 12 13 13 13 12 11 11 12 12 12 11 11 11 12 13 14 15 16 17 18 18 18
19 19 18 18 18 17 17 16 16 15 14 14 14 13 13 13 13 12 12 12 12 13 13 13 13 12 11 11 12 12 12 12 11 12 13 14 14 15 16 17 17 18 18

GEFSGL_500_meanwind_234.txt.gz
Wind_Speed
16 17 17 17 17 17 17 18 18 18 18 18 18 17 17 17 17 17 17 18 18 17 17 16 14 14 15 15 16 17 18 19 18 19 20 21 22 22 23 23 24 25 25
16 16 16 17 17 16 17 18 18 17 17 17 18 18 18 17 17 17 17 17 16 15 14 13 13 13 14 14 15 15 15 16 16 17 18 19 19 20 20 21 23 24 24
16 16 16 16 16 16 16 17 17 17 17 17 17 18 18 18 17 16 16 15 15 14 14 13 13 13 13 13 13 14 14 14 15 15 15 15 16 17 18 19 20 21 22
15 15 15 15 15 15 16 16 17 17 17 17 18 18 18 17 17 17 17 16 15 14 14 13 13 14 14 14 13 13 12 12 12 12 12 14 14 15 17 17 18 19 20
15 15 15 15 15 15 15 16 17 17 17 17 17 17 18 17 17 18 18 17 16 15 15 14 14 14 14 14 13 12 11 10 10 11 12 13 14 15 15 15 16 17 18
15 15 15 14 14 15 15 16 16 16 16 16 17 17 18 18 18 18 17 17 16 16 16 15 14 13 13 13 12 11 11 10 10 10 11 12 12 12 13 14 14 16 17
14 14 14 14 14 14 15 15 15 16 16 16 17 18 18 18 18 18 18 18 17 16 16 15 14 13 12 12 11 11 10 10 10 10 10 10 12 11 11 12 13 13 15
13 14 13 13 13 14 14 15 16 16 17 17 17 17 18 18 18 19 19 18 17 16 16 15 14 13 11 11 10 10 9 9 9 9 9 9 10 10 10 10 10 11 12
13 13 13 13 13 14 14 15 15 16 16 16 17 17 18 19 18 19 20 19 18 17 17 16 14 12 11 11 10 9 9 9 9 9 9 9 9 8 8 9 9 10 11
12 12 13 13 13 14 15 15 16 16 16 16 17 17 18 19 19 19 20 19 19 18 17 15 13 12 11 11 11 10 9 9 8 8 8 8 7 8 8 8 9 9 11
13 13 14 13 13 14 15 15 15 15 16 16 17 17 18 18 19 19 19 19 20 18 16 14 13 12 11 11 10 9 9 9 8 8 8 8 8 8 8 9 9 10 11
14 14 14 15 14 15 15 15 15 15 16 16 17 17 17 18 19 19 20 20 20 18 15 14 13 12 12 11 10 9 9 9 8 8 8 8 8 8 9 9 10 11 12
16 15 16 16 15 15 15 15 15 16 16 17 17 17 17 18 19 19 19 20 19 18 16 15 14 13 12 11 10 9 9 9 8 8 7 7 8 9 9 10 11 12 12
18 17 17 16 16 16 16 16 16 16 16 17 17 17 18 18 18 18 19 19 19 18 16 15 14 13 13 12 11 10 9 9 9 8 7 8 9 9 9 11 12 12 13
18 18 18 17 17 17 17 17 16 16 17 17 17 17 17 17 18 18 18 18 18 17 16 15 14 13 13 12 11 11 10 9 9 9 9 10 10 10 11 11 12 11 12
19 20 19 19 18 18 18 17 16 16 17 17 17 18 17 17 18 18 17 17 17 16 16 15 14 14 14 13 11 11 10 10 10 10 10 10 11 11 11 11 12 12 12
20 20 20 19 19 18 18 18 17 17 17 17 17 17 17 17 18 18 17 17 16 16 15 15 15 14 14 13 12 11 10 10 10 10 10 11 11 11 12 12 12 13 13
21 21 21 20 20 19 18 18 18 17 17 17 17 16 17 18 17 18 18 17 16 15 15 14 14 14 14 13 12 12 11 11 11 11 11 11 11 11 11 12 12 12 13
23 23 22 21 20 19 19 19 19 18 17 17 17 17 17 17 17 18 17 17 16 16 15 15 15 15 15 14 13 13 13 12 11 11 12 11 11 11 12 12 12 13 13
23 22 21 21 21 20 20 19 19 18 17 17 17 16 16 17 17 17 17 17 17 16 16 16 16 16 16 15 14 13 12 11 11 11 12 12 11 11 12 11 12 12 13
22 22 22 22 21 21 20 19 19 19 18 17 17 16 16 17 17 17 17 17 17 17 16 17 17 16 16 15 14 13 12 11 11 11 11 12 12 11 11 11 11 12 13
22 22 23 21 21 21 21 20 19 19 18 17 17 16 16 17 17 18 17 17 17 17 16 17 16 15 14 13 13 12 11 11 11 11 11 11 11 11 10 10 11 11 13
22 22 22 21 21 21 20 19 19 19 18 17 16 16 15 16 16 17 17 17 17 17 17 16 15 14 13 12 12 12 12 11 10 10 10 10 11 11 11 11 11 12 13
23 23 22 21 20 20 19 19 19 18 17 16 16 15 15 16 16 17 17 17 17 17 16 15 14 13 12 11 11 12 11 9 9 10 10 10 10 11 11 11 12 13 14
22 22 22 21 20 20 19 18 18 18 17 16 16 15 15 16 16 17 17 17 16 16 15 14 12 12 11 11 11 10 10 9 9 10 10 11 11 12 13 13 13 14 15
22 22 21 21 20 19 18 18 17 17 16 15 15 15 15 15 15 16 16 16 15 14 14 13 11 12 11 11 11 11 11 9 10 10 11 11 11 12 13 13 14 15 16

GEFSGL_500_meanwind_240.txt.gz
Wind_Speed
16 15 15 15 16 16 17 17 17 17 17 16 15 15 15 15 15 16 16 15 15 15 17 16 16 16 15 15 15 16 17 18 18 18 20 21 23 24 25 24 24 25 25
15 14 15 15 15 15 16 16 17 17 17 16 15 15 15 15 15 15 14 14 14 15 15 15 15 13 13 13 14 15 16 16 17 17 18 19 20 21 22 22 23 24 25
14 14 14 14 14 15 15 16 16 16 16 15 15 15 15 15 14 13 13 13 13 13 14 14 13 13 13 13 14 14 14 14 15 15 16 17 18 19 19 20 21 21 22
13 12 13 13 14 14 14 15 15 15 15 15 15 15 15 14 14 13 13 14 14 14 14 14 13 13 13 13 13 13 12 11 11 13 13 14 15 16 18 18 18 19 20
12 12 12 12 13 14 14 15 15 15 15 15 15 15 15 14 13 13 14 15 15 14 14 13 13 13 13 13 12 12 11 10 9 10 11 11 12 13 14 16 17 18 18
12 11 12 13 13 14 14 15 15 15 15 16 15 15 16 15 14 14 14 14 14 14 14 13 13 13 13 13 12 11 10 9 9 9 9 10 10 11 12 13 15 17 17
12 11 11 12 13 14 15 15 15 15 15 15 15 16 16 16 15 15 14 14 15 15 14 14 13 13 13 13 12 11 10 8 8 8 9 9 10 10 11 12 13 14 14
12 12 12 13 14 14 15 15 15 15 15 16 16 16 16 16 16 15 15 15 15 15 14 14 13 12 12 12 12 11 10 9 8 8 8 8 8 9 10 10 10 11 12
13 13 13 13 14 14 15 16 16 16 16 16 16 16 16 16 16 16 15 15 15 15 14 14 13 12 12 12 11 11 10 9 8 8 8 8 8 8 9 10 10 11 12
14 14 14 14 14 14 15 16 16 16 16 16 16 16 16 16 17 16 16 15 15 15 15 14 13 12 12 12 11 11 10 9 8 8 7 7 8 8 8 8 9 10 11
16 15 15 15 15 15 16 16 16 16 16 16 16 17 17 17 17 16 16 15 14 14 14 14 13 12 12 11 10 9 8 8 8 7 7 7 7 7 7 7 8 8 9
17 17 17 17 17 17 17 16 16 15 15 16 16 17 17 17 16 16 15 15 14 14 13 13 13 13 12 11 10 10 9 8 7 7 7 7 7 7 7 8 8 8 8
19 18 18 18 18 17 16 16 15 15 14 15 15 16 15 16 16 16 15 14 14 14 13 13 13 13 12 11 11 10 10 9 8 7 7 7 7 8 8 8 8 8 8
19 18 18 18 18 17 17 16 15 14 14 14 14 15 15 15 15 15 15 14 13 13 13 13 13 12 12 11 11 10 9 8 7 7 6 6 7 8 8 8 8 8 9
19 19 18 18 18 17 17 17 16 15 14 14 15 15 15 15 15 15 14 14 14 14 13 13 13 12 12 11 10 9 8 8 7 7 7 7 7 7 8 8 8 9 10
20 20 19 18 18 18 17 18 17 16 15 15 15 15 15 15 15 14 14 14 14 13 13 13 12 11 11 11 10 10 9 8 8 8 7 7 7 8 9 9 9 10 11
21 21 20 19 19 19 19 19 18 17 16 15 15 15 15 16 15 15 14 15 14 14 13 13 12 11 10 10 10 10 10 9 9 8 8 8 8 9 9 10 10 10 11
22 21 20 20 20 19 19 19 18 17 16 16 16 16 16 16 15 15 14 14 14 14 14 13 12 11 11 10 11 11 11 11 10 10 9 10 10 10 10 11 11 11 11
21 21 20 20 20 19 19 18 18 17 17 16 16 16 16 15 15 14 14 14 14 14 14 13 12 12 12 11 11 11 11 11 11 11 10 11 10 11 11 11 11 11 11
22 22 21 21 20 19 18 17 17 17 17 16 16 16 15 15 15 14 14 15 15 14 13 13 13 13 12 11 10 10 10 11 11 11 11 11 11 10 10 10 10 11 11
22 22 22 22 20 19 18 17 17 17 17 16 15 15 14 14 15 15 15 15 14 13 13 13 12 12 12 12 11 10 10 11 11 11 11 10 10 10 9 9 9 10 10
22 21 21 21 21 19 19 18 17 17 16 15 15 14 14 14 15 15 15 14 13 13 12 12 12 12 12 12 11 11 10 10 11 11 10 9 9 9 9 9 9 10 11
22 22 21 21 21 21 20 19 18 17 16 16 15 14 14 14 14 14 13 13 13 12 12 12 12 11 11 11 11 11 11 10 9 8 8 8 9 9 9 10 10 11 11
21 21 21 21 21 21 20 19 18 18 17 16 16 15 15 14 14 13 12 12 12 12 12 12 11 10 10 10 10 10 10 9 9 9 8 8 8 9 10 10 10 11 11
21 21 21 20 20 20 20 19 18 18 18 17 16 16 15 14 14 13 13 12 12 11 11 11 11 10 10 10 10 10 9 9 8 8 9 9 9 9 10 10 10 10 11
21 20 20 21 21 20 20 19 19 18 17 17 17 16 15 14 14 14 14 14 13 11 11 10 10 10 10 10 9 9 9 9 9 9 9 10 10 10 11 11 11 11 12

GEFSGL_500_meanwind_246.txt.gz
Wind_Speed
15 15 16 15 15 14 16 16 17 17 17 17 17 17 17 17 17 17 17 17 17 16 17 18 18 18 18 18 18 18 18 19 19 18 19 21 23 23 24 24 25 25 26
15 15 15 14 14 14 15 16 16 16 17 17 17 17 17 17 16 17 17 16 15 15 16 17 17 16 16 17 17 17 17 18 19 18 19 20 20 21 22 22 23 24 25
14 14 14 13 14 14 15 16 16 16 17 17 17 17 17 16 16 16 16 15 16 16 16 16 15 15 16 15 15 16 16 17 17 17 18 18 17 18 19 20 20 21 22
14 14 14 13 14 14 14 15 16 16 16 16 17 17 17 16 16 16 16 15 15 15 15 15 15 15 14 14 14 15 16 16 15 15 16 15 15 16 16 18 18 18 19
13 13 14 14 14 14 14 15 15 15 16 16 16 17 17 17 17 16 15 14 14 15 15 14 14 14 14 14 14 14 14 14 13 13 12 12 12 13 13 15 16 17 17
13 13 13 13 14 15 14 15 15 15 16 16 16 16 16 17 16 15 14 14 14 14 14 13 14 13 14 13 13 13 13 13 12 11 11 10 10 10 10 11 13 14 15
13 13 13 13 14 15 15 15 15 15 15 16 17 16 16 16 16 15 14 15 15 14 13 13 13 13 13 12 12 13 12 12 11 11 10 9 9 9 9 10 11 12 12
14 13 13 14 14 15 15 15 15 15 15 16 17 17 16 16 15 15 15 15 15 14 13 13 14 13 12 12 12 12 12 11 10 9 9 8 8 8 8 8 9 10 11
15 15 15 14 15 15 14 15 16 16 16 16 16 17 17 17 16 15 15 15 15 15 14 14 13 12 12 12 12 11 11 10 9 8 7 7 7 7 8 8 9 9 10
16 16 16 16 15 15 15 15 15 16 16 16 16 17 17 16 16 15 15 15 15 15 14 14 13 12 12 12 11 10 10 9 8 7 7 7 7 7 7 8 8 9 10
16 17 17 16 16 15 15 15 15 15 15 16 16 16 16 16 16 16 16 16 15 15 14 14 13 12 11 11 11 10 9 8 8 8 8 8 8 8 8 8 8 9 10
17 17 16 17 17 16 16 16 15 15 15 15 15 15 15 15 16 16 15 15 15 14 13 13 12 11 10 10 10 9 8 8 8 8 8 8 9 9 9 9 9 10 10
17 17 16 17 16 16 17 16 15 15 15 15 15 15 15 15 15 15 15 14 14 13 12 11 10 10 10 10 10 10 9 9 9 9 9 9 9 9 9 10 10 11 12
19 18 18 18 17 17 17 16 16 15 15 15 15 15 15 15 15 15 15 15 14 13 12 11 11 11 10 10 10 9 9 9 9 9 9 9 10 10 10 10 10 11 12
20 19 19 19 17 17 17 16 16 15 16 16 15 15 15 15 15 15 14 14 13 12 12 11 11 10 10 10 10 9 9 9 9 9 9 9 10 10 11 11 12 11 11
21 20 19 19 18 17 17 17 17 16 16 16 16 16 15 14 14 14 14 13 13 12 11 11 11 10 10 10 10 10 9 9 9 9 9 10 10 11 11 11 11 11 11
22 20 19 18 18 18 18 17 17 17 16 16 16 16 15 14 13 13 13 13 12 11 11 10 10 10 10 9 9 10 10 10 10 11 11 11 11 11 12 11 11 11 11
21 20 20 20 19 18 18 18 18 17 17 16 16 16 14 13 13 13 13 13 12 11 11 11 11 11 10 9 9 10 10 10 11 11 11 12 12 12 12 11 11 11 12
20 20 20 20 20 19 19 19 19 18 17 17 16 16 15 14 13 13 13 13 12 12 12 12 11 11 11 10 10 10 11 11 11 11 12 12 13 12 12 11 11 11 11
20 20 20 21 21 20 20 19 19 19 18 17 17 16 15 14 14 14 14 14 13 12 12 12 12 11 11 11 11 11 11 12 12 13 13 13 13 12 11 10 10 10 10
22 22 21 21 21 21 20 20 20 20 19 19 18 17 16 15 15 15 15 14 13 13 13 13 12 12 12 12 12 12 12 12 12 12 12 12 12 12 11 11 11 11 10
23 22 21 21 20 20 20 21 20 20 19 19 19 18 17 16 16 16 15 14 14 13 13 13 13 12 12 12 12 12 13 13 12 11 11 11 11 12 11 10 10 10 10
23 22 22 21 21 20 20 20 20 20 20 20 19 19 18 17 16 16 15 14 14 14 13 13 13 13 13 13 13 13 13 13 12 11 10 11 11 11 11 11 11 11 11
23 23 22 22 21 21 20 20 20 20 20 20 20 19 18 18 17 16 15 14 14 13 13 13 13 13 13 13 13 13 12 12 11 11 11 12 12 12 11 11 11 12 13
23 23 22 22 22 22 22 21 20 20 19 19 19 18 17 16 16 15 15 14 14 13 13 13 13 13 13 14 14 13 12 12 12 12 12 12 12 13 13 13 13 13 13
24 23 22 21 21 21 21 20 19 19 18 18 17 16 17 17 16 15 15 14 14 14 14 14 14 14 14 14 14 14 13 13 13 13 14 13 13 13 13 13 13 13 13

GEFSGL_500_meanwind_252.txt.gz
Wind_Speed
16 16 16 16 16 16 16 16 16 17 17 17 18 18 18 18 18 18 18 19 18 17 17 17 17 17 17 17 18 18 19 20 21 21 22 23 22 22 23 23 24 25 25
17 16 15 15 15 14 14 15 15 16 16 17 17 18 18 17 17 17 18 18 18 17 17 17 17 16 16 17 17 17 18 19 19 20 20 21 21 21 21 21 22 23 23
16 15 14 14 14 15 15 15 15 16 17 18 18 17 17 16 16 16 17 17 16 16 16 16 16 16 16 16 16 16 16 17 18 18 17 18 18 18 18 19 19 20 21
15 14 14 14 15 14 15 15 15 16 17 17 17 17 17 16 16 16 16 16 15 15 15 15 15 15 15 15 15 15 15 16 17 16 16 15 16 16 17 17 17 17 18
15 15 15 16 14 14 15 16 16 16 17 17 17 17 17 16 16 15 15 15 15 14 14 14 14 14 14 14 14 15 15 15 15 15 14 14 13 14 14 15 15 15 16
15 15 16 16 15 16 15 16 16 16 17 17 17 17 16 16 15 15 15 15 14 14 13 14 13 13 13 14 14 14 14 14 13 13 12 12 11 12 13 13 13 13 13
15 15 15 16 16 16 16 16 16 17 16 16 16 16 15 15 15 15 15 14 14 13 13 13 13 13 13 13 13 13 13 12 12 12 11 11 10 10 11 11 10 11 12
16 16 17 17 17 17 18 17 17 17 16 16 15 15 15 14 15 15 15 14 14 13 13 13 13 12 12 12 12 12 11 11 10 11 11 11 10 10 9 9 9 10 10
17 17 17 17 17 18 18 18 18 17 17 16 15 15 14 14 15 15 14 13 13 13 13 13 12 11 11 11 11 11 10 10 9 9 10 10 10 9 8 9 9 9 9
18 17 17 18 18 18 19 19 18 17 17 16 15 14 14 14 14 14 13 13 12 12 12 12 11 11 11 11 11 10 10 9 9 8 9 10 10 9 9 8 8 9 9
19 19 18 18 19 19 19 18 18 18 17 16 15 14 13 13 13 13 12 11 12 12 11 11 11 11 11 10 10 10 9 8 8 8 8 8 9 9 8 8 8 8 8
20 20 20 19 19 20 19 19 18 18 17 16 15 14 13 12 12 13 12 12 12 12 11 11 10 10 10 10 9 9 8 8 8 8 8 7 8 8 8 8 8 8 8
21 21 21 21 20 20 19 19 19 18 17 17 16 14 12 12 13 13 12 12 12 11 11 11 10 10 10 10 9 8 7 7 7 7 7 7 7 7 8 8 8 8 8
23 23 23 23 22 21 21 20 20 19 17 16 15 14 13 13 13 13 12 12 11 11 11 11 10 9 9 9 8 7 6 6 7 8 8 7 7 8 8 8 8 8 8
23 23 24 24 23 22 21 20 20 18 17 16 16 16 15 14 14 14 13 13 12 11 11 11 10 9 9 8 8 7 7 7 8 8 8 8 8 8 8 8 8 8 9
23 23 23 23 22 21 21 20 20 19 18 18 17 17 16 15 15 14 14 14 13 12 11 11 10 9 9 8 8 8 7 8 8 7 8 8 8 8 9 9 8 9 10
23 23 23 22 21 20 20 21 20 19 19 18 18 18 16 16 16 15 14 14 13 13 12 11 11 11 10 9 9 9 9 8 8 9 9 9 9 9 9 9 10 10 10
23 23 22 21 20 20 20 20 20 19 19 18 18 18 17 17 17 16 15 14 14 14 13 12 12 12 11 10 10 10 10 9 10 10 10 10 10 10 10 10 10 10 11
23 22 22 22 22 21 20 20 19 19 18 18 18 17 17 17 17 16 15 15 15 14 13 13 13 12 11 11 10 11 11 11 10 10 11 11 11 11 11 11 11 11 11
23 23 23 23 22 22 21 21 21 20 19 19 19 18 17 17 17 16 16 15 15 15 14 13 13 12 12 11 12 12 12 11 11 11 11 12 12 12 12 12 12 13 13
23 23 22 22 22 22 22 22 21 20 19 20 20 20 18 18 17 17 17 16 16 15 15 15 14 13 12 12 12 11 11 11 12 12 12 13 14 13 13 13 13 14 14
22 23 22 22 22 22 22 22 22 21 20 20 21 21 20 20 19 18 18 17 17 16 16 15 14 13 13 13 13 13 13 13 13 13 13 14 14 14 14 14 15 15 15
22 22 22 22 22 22 22 22 22 22 21 21 21 21 21 20 20 20 19 19 18 17 16 15 15 14 14 14 14 14 14 14 14 14 14 14 15 16 16 16 16 16 16
22 22 22 22 22 21 22 22 22 22 22 21 20 19 19 19 19 19 18 18 18 18 17 16 15 15 14 14 14 14 14 14 15 15 15 15 15 15 15 16 16 16 16
22 22 22 22 23 22 22 21 22 22 22 21 20 19 19 19 19 19 18 17 17 17 17 16 16 15 15 15 15 15 15 15 15 15 15 15 15 15 15 15 15 16 16
21 22 23 23 23 23 22 21 21 21 21 21 20 20 20 20 19 19 18 18 17 16 16 16 17 16 16 16 16 16 16 16 15 15 15 15 15 15 15 15 16 16 16

GEFSGL_500_meanwind_258.txt.gz
Wind_Speed
16 16 17 17 17 18 19 19 19 19 20 19 19 20 20 20 20 20 20 20 20 20 20 19 19 19 19 19 19 19 19 20 21 21 22 22 22 22 23 23 23 24 24
17 17 18 17 17 17 18 19 19 19 19 19 20 20 20 20 20 20 19 19 19 19 18 18 18 18 19 19 18 18 18 19 19 19 20 21 21 21 20 21 21 22 22
17 17 18 18 18 18 18 19 19 19 19 19 20 20 19 19 19 20 19 19 18 18 18 18 17 18 18 18 17 17 18 18 18 18 18 19 19 19 19 20 20 20 20
18 19 19 19 18 19 19 19 19 20 20 20 19 19 19 19 19 19 18 18 17 17 17 17 17 17 17 17 17 17 17 17 17 17 17 17 18 18 18 18 18 18 19
19 19 18 19 19 19 19 20 20 21 20 20 19 19 19 19 18 18 18 17 17 16 16 16 16 16 17 17 17 17 17 17 17 16 16 17 17 18 18 18 18 17 17
20 20 19 19 19 19 19 20 21 20 20 19 19 18 18 18 17 17 17 17 15 15 16 16 16 17 16 16 16 16 16 17 16 16 16 17 17 17 17 17 16 15 14
20 20 19 20 19 19 19 20 20 20 19 19 19 18 18 17 16 16 16 15 14 14 14 15 15 15 14 15 15 16 16 17 17 17 16 17 16 15 15 14 14 14 13
21 20 20 20 20 19 19 20 20 20 20 20 19 18 18 17 16 16 15 13 13 13 13 14 13 13 13 14 15 16 16 16 16 16 17 16 15 13 13 12 12 12 11
22 21 21 21 20 20 20 20 20 20 20 19 19 18 18 17 16 15 15 13 12 13 13 13 13 12 12 13 13 14 14 15 16 15 15 14 14 13 11 11 10 10 10
22 21 21 21 22 21 21 21 20 20 19 19 19 18 17 16 16 15 14 14 13 13 13 13 13 13 13 13 13 13 13 13 13 13 13 13 13 12 11 10 10 10 10
22 22 21 21 21 21 21 21 21 20 20 19 19 18 17 16 16 15 14 13 13 13 13 13 13 13 12 12 12 12 12 12 11 12 12 12 11 11 11 10 10 9 10
22 21 21 21 21 21 21 21 22 21 21 21 20 19 18 17 16 15 14 13 13 13 13 12 12 12 12 12 12 12 11 11 11 11 11 10 10 10 10 10 9 9 9
23 22 22 21 22 22 22 22 22 21 21 22 21 20 19 17 17 16 15 15 14 14 14 13 13 12 12 12 12 12 11 11 11 10 9 9 9 10 10 9 9 9 9
24 23 23 23 22 23 23 23 22 23 22 21 19 19 18 18 17 17 17 16 15 15 14 14 14 13 12 12 12 12 11 11 11 10 10 9 9 9 9 9 9 9 9
25 24 24 23 23 23 23 23 23 22 21 21 19 19 19 19 18 17 16 16 16 16 16 15 15 14 14 13 13 12 12 12 12 11 11 10 9 9 8 8 8 9 9
25 25 24 23 23 23 22 22 22 22 21 20 20 19 19 19 19 18 17 16 16 16 16 15 15 15 14 14 14 13 12 12 11 10 9 9 9 8 8 8 9 9 9
24 24 23 23 23 23 22 21 20 21 21 20 20 20 19 19 19 18 18 17 17 16 15 14 14 14 14 15 15 13 12 11 10 10 9 9 9 9 9 9 10 10 10
24 24 24 24 23 22 22 21 20 20 20 19 19 19 19 18 18 18 18 18 18 17 16 16 15 15 15 15 14 14 13 11 11 11 11 11 11 11 11 10 11 11 11
24 24 24 24 23 23 22 21 21 21 21 20 20 19 19 19 18 18 18 18 18 18 17 17 17 16 16 16 15 14 13 12 12 12 12 11 11 12 12 12 12 12 12
24 24 24 23 23 23 22 22 21 21 21 21 20 20 20 20 19 19 19 18 18 18 17 17 18 17 16 16 15 15 14 14 13 13 13 13 13 13 13 13 13 12 12
23 23 23 23 22 22 23 22 22 22 22 21 21 21 21 20 20 19 19 19 19 18 18 17 17 17 16 15 15 15 15 15 15 15 15 14 14 13 14 14 14 14 13
23 22 22 22 22 22 22 22 22 22 23 22 22 21 21 21 21 20 20 20 19 18 18 18 18 18 17 17 16 16 16 16 16 16 16 16 15 15 15 15 16 16 16
24 23 22 22 21 21 22 22 22 21 21 22 21 21 21 21 21 20 20 19 19 19 18 18 18 18 18 18 18 17 17 17 17 17 17 17 17 17 16 17 17 17 18
24 24 22 21 21 22 22 22 23 22 21 21 21 20 20 20 20 19 19 19 18 19 19 18 18 18 18 19 19 18 18 18 18 18 18 18 18 19 19 19 19 19 19
24 24 22 21 21 22 22 23 23 22 23 22 22 21 20 20 20 20 19 19 18 19 19 20 20 20 20 19 19 19 19 19 19 19 19 19 19 20 20 21 20 20 20
23 23 23 22 22 22 22 21 22 22 21 21 21 21 20 21 21 20 19 19 18 18 19 19 20 19 19 20 20 20 20 20 20 20 20 20 20 20 21 21 21 21 22

GEFSGL_500_meanwind_264.txt.gz
Wind_Speed
15 14 14 14 15 15 16 15 16 15 16 16 16 16 17 18 18 18 17 18 18 18 18 18 18 18 19 19 19 19 19 20 20 20 20 21 22 23 23 24 23 23 23
15 15 16 16 16 16 15 15 16 15 16 16 16 16 17 18 18 18 18 18 17 17 17 17 17 18 18 19 18 18 18 18 18 18 19 19 20 21 22 23 22 22 22
16 16 16 16 16 16 15 16 16 16 17 17 17 17 17 17 18 18 18 17 16 16 15 15 15 16 17 17 17 17 17 17 17 17 17 18 19 20 21 21 22 21 22
16 16 15 16 16 16 16 17 17 17 17 18 18 18 17 17 17 17 16 15 13 13 13 13 14 15 16 16 16 16 16 17 16 17 17 17 18 18 19 19 20 20 21
16 16 16 17 16 16 17 18 18 18 19 19 19 18 17 17 17 16 14 13 13 12 13 13 12 13 14 15 15 15 15 15 16 16 16 17 17 18 18 18 19 19 19
17 18 18 18 17 17 18 18 18 19 19 19 18 18 18 17 16 15 14 13 13 12 12 12 12 12 12 13 14 15 15 15 16 16 16 17 17 17 18 18 18 19 19
20 19 19 18 18 19 19 19 19 19 19 19 19 18 18 17 16 15 14 13 13 12 12 11 12 12 12 12 13 14 15 15 16 16 17 17 16 16 16 17 17 17 17
19 19 19 19 19 19 19 19 20 20 19 19 19 19 18 17 15 15 14 13 13 12 12 13 12 12 12 13 13 13 14 15 15 16 16 15 15 15 15 15 15 15 15
20 20 20 20 19 19 19 20 20 20 20 19 19 19 18 16 16 14 13 13 13 13 13 13 12 12 12 12 12 13 13 13 14 15 15 15 15 14 14 14 14 14 13
21 20 20 20 20 20 20 20 20 20 20 19 19 18 17 16 16 15 14 13 13 13 13 13 13 13 13 13 13 13 13 13 13 13 14 14 14 14 14 13 13 13 13
21 21 20 21 21 20 20 19 20 19 19 19 18 18 17 16 15 15 14 13 14 14 14 13 13 13 13 13 12 12 12 12 12 12 13 13 13 14 14 13 13 13 12
22 22 21 21 21 21 20 20 19 19 19 19 18 18 17 17 16 15 14 14 14 15 14 14 13 13 12 13 13 12 12 12 11 11 12 12 13 13 13 13 13 12 11
22 22 21 22 21 21 21 21 20 20 20 20 19 18 18 18 16 16 15 15 15 15 14 14 13 13 13 13 13 13 12 12 12 11 11 11 12 11 11 11 11 11 11
23 23 22 21 21 21 21 21 20 20 20 20 19 18 18 17 16 16 16 16 15 15 15 14 14 14 13 13 13 13 13 12 12 12 12 11 11 11 11 11 11 10 10
23 23 22 22 22 21 22 21 21 21 21 20 19 19 18 18 17 16 16 17 17 16 16 16 15 15 14 14 14 14 13 13 13 13 13 12 12 12 11 11 11 11 10
22 22 22 22 22 23 22 21 20 20 20 19 19 19 19 18 18 18 18 18 17 17 17 17 17 16 16 16 15 14 14 14 14 14 14 13 13 12 12 11 11 11 11
23 23 23 23 23 23 23 22 21 20 20 20 19 19 19 18 18 17 17 17 17 17 17 18 18 17 17 17 16 16 16 16 15 15 15 14 14 13 13 13 13 13 12
23 23 23 23 22 22 22 22 22 21 20 19 19 18 17 17 18 17 17 17 17 17 17 17 17 17 17 18 18 18 17 17 17 16 16 16 15 15 14 14 14 13 13
23 23 22 22 22 22 22 21 21 20 20 19 19 18 18 18 19 18 18 17 17 17 17 17 17 17 17 17 17 18 18 19 18 18 17 16 15 14 14 14 14 14 14
23 23 22 22 22 22 21 21 21 20 20 20 19 19 19 19 19 19 19 19 19 18 19 19 18 18 18 18 17 17 18 18 17 17 16 16 16 16 15 15 15 15 14
23 22 22 21 21 20 20 20 20 20 20 20 21 21 21 20 20 20 20 20 20 20 20 20 20 19 19 19 19 18 18 18 18 18 17 16 15 16 16 16 16 15 15
23 22 21 20 20 20 20 20 20 20 21 21 21 22 21 21 21 21 21 21 21 21 21 21 21 21 21 20 20 20 19 19 18 18 17 17 17 16 17 17 16 16 16
22 22 21 21 21 21 21 20 19 19 20 20 21 21 21 21 21 21 21 22 22 21 21 21 21 20 21 21 20 20 18 17 17 17 18 18 18 17 18 18 18 17 18
23 22 22 22 22 21 20 21 20 19 19 20 20 20 20 21 21 21 22 22 22 22 22 22 21 21 20 19 19 18 18 17 17 17 17 17 17 18 18 18 18 18 18
23 22 22 22 21 20 20 20 20 19 19 19 19 20 20 20 20 21 22 22 22 22 22 22 22 22 21 20 19 18 17 17 17 17 17 17 17 18 18 18 19 18 18
23 22 22 22 21 20 20 20 20 20 19 19 19 20 19 20 20 21 21 22 22 23 23 22 22 21 20 19 19 19 18 18 17 16 17 17 18 19 19 19 19 19 19

GEFSGL_500_meanwind_270.txt.gz
Wind_Speed
15 15 15 14 15 15 15 16 16 15 15 15 16 17 18 19 20 20 19 18 18 18 18 18 18 18 19 19 20 21 21 22 23 23 23 23 23 24 25 25 25 25 24
16 16 15 15 16 16 16 16 16 16 16 16 17 18 19 19 20 19 18 18 18 17 18 18 18 18 18 19 20 21 21 21 21 21 22 22 23 23 23 23 23 23 23
18 17 17 17 17 17 17 17 17 17 17 18 18 19 18 19 19 19 18 18 17 17 17 18 18 19 19 20 20 21 21 21 21 20 21 21 21 22 22 22 23 23 23
19 19 18 18 18 18 18 18 18 17 18 19 19 19 19 19 19 19 19 19 18 18 18 18 18 18 18 19 19 19 19 19 20 20 20 20 20 21 21 21 22 23 24
20 20 19 19 19 19 19 19 19 19 19 19 19 19 20 19 19 19 19 19 18 17 17 17 18 17 17 18 18 18 19 18 18 19 19 19 19 20 20 20 21 22 22
20 20 20 21 21 21 21 21 20 19 19 20 20 20 20 20 19 19 20 19 18 17 17 17 17 16 17 18 18 18 18 17 17 18 18 18 18 19 20 20 21 21 21
20 21 21 21 21 21 20 20 20 20 20 20 20 20 20 20 20 20 19 18 18 18 18 18 16 16 16 17 18 18 17 17 17 18 18 18 18 18 19 19 19 19 20
21 21 21 21 21 21 21 21 21 21 21 21 21 21 20 20 20 20 19 18 18 18 18 18 17 17 17 18 18 18 17 17 17 17 17 17 18 18 18 18 18 18 19
21 21 21 21 21 21 22 22 22 22 22 22 21 21 20 20 20 20 19 19 19 19 18 18 18 17 17 18 18 18 18 18 17 17 17 17 17 17 17 17 18 18 17
23 22 21 22 22 22 22 23 23 23 22 22 22 21 21 20 20 19 19 19 19 19 18 18 18 18 17 17 18 18 17 18 18 17 17 17 17 17 18 18 17 17 17
23 22 22 22 22 22 22 23 23 22 22 22 23 22 21 20 19 19 20 20 19 18 18 18 18 18 18 18 17 17 17 18 18 18 17 17 17 17 18 18 17 17 16
23 23 22 21 21 22 22 22 22 22 22 22 21 21 20 20 20 19 19 19 18 18 18 18 18 19 19 18 17 17 17 17 18 18 17 17 17 17 17 17 16 16 16
24 23 23 22 22 22 21 22 22 22 21 21 21 21 20 20 19 19 19 19 19 19 18 18 18 18 18 18 17 17 17 17 17 17 16 16 16 16 17 16 16 16 16
24 23 22 22 22 22 22 22 22 22 22 21 21 21 20 20 20 20 19 19 20 19 19 19 20 19 19 19 18 18 18 18 17 17 17 17 17 17 17 16 16 16 16
23 22 22 22 22 23 23 23 22 22 23 22 21 20 21 21 21 21 20 21 21 21 20 19 19 19 20 19 19 19 18 18 19 18 18 18 17 17 17 16 16 16 16
22 21 21 22 23 23 24 24 23 23 23 23 23 22 22 22 21 21 21 20 20 20 20 20 20 20 20 19 19 20 20 19 19 19 18 17 17 17 17 16 16 17 17
21 22 22 23 23 23 23 23 23 23 23 22 23 23 22 22 22 21 21 21 20 20 20 20 20 20 20 20 20 20 19 19 19 19 18 18 17 17 18 18 18 17 17
23 23 23 24 24 24 24 24 24 23 23 23 23 23 23 23 23 22 21 21 21 21 21 21 21 21 21 21 20 20 20 20 20 19 18 18 18 18 18 18 18 18 17
24 24 24 24 24 24 24 24 23 23 22 22 23 23 23 23 22 22 21 21 21 21 21 21 22 22 22 21 21 21 21 21 20 20 19 18 18 18 18 18 18 17 17
24 25 25 24 23 23 23 23 23 23 23 22 22 22 22 22 22 22 22 21 21 21 21 22 22 21 21 21 21 21 21 21 21 20 20 19 18 18 18 18 18 18 18
26 26 26 25 24 23 23 22 22 21 21 21 21 21 22 22 22 22 23 22 22 22 22 22 22 22 22 21 21 21 21 22 22 22 21 20 19 19 19 18 17 17 17
26 26 26 26 26 24 24 23 22 22 22 22 22 22 22 22 22 22 22 23 23 22 22 22 22 22 22 22 22 21 21 21 22 22 22 22 22 21 20 19 18 17 17
25 25 25 25 25 24 24 24 23 23 23 22 22 21 22 22 22 22 22 23 23 23 22 22 21 21 21 22 22 22 21 21 20 21 21 21 21 21 20 20 19 20 19
24 24 24 24 24 24 24 24 23 23 23 22 22 21 21 21 21 21 22 22 23 23 23 22 21 21 21 22 22 21 21 21 20 20 20 20 20 20 21 21 21 21 21
24 24 24 24 24 24 23 23 23 22 22 21 21 21 21 21 22 22 22 22 22 22 22 22 22 22 21 22 22 21 21 21 21 21 21 20 20 21 21 20 21 21 21
25 24 24 24 24 24 23 23 22 22 21 20 20 21 21 21 21 22 22 22 23 22 22 23 23 22 22 22 22 21 22 21 21 21 20 21 20 20 20 20 21 22 22

GEFSGL_500_meanwind_276.txt.gz
Wind_Speed
18 18 17 18 17 18 17 17 17 16 16 15 16 16 17 18 18 18 18 18 19 20 20 20 20 20 20 20 20 20 21 21 21 21 22 22 23 23 25 26 25 25 24
19 19 19 19 19 18 18 18 17 16 15 16 16 17 17 18 18 19 18 18 19 20 20 20 20 20 20 20 20 20 21 21 21 21 21 21 22 22 23 24 24 24 24
20 20 20 20 20 20 19 18 17 17 17 17 17 17 17 18 18 18 19 19 19 19 19 20 20 20 20 20 20 20 20 21 21 21 21 21 21 22 23 23 23 24 25
21 21 21 21 20 20 19 19 18 18 18 18 18 18 18 18 19 20 20 20 19 19 19 19 19 19 20 20 20 20 20 21 21 21 21 21 21 22 22 23 22 22 23
21 21 21 21 21 20 20 20 19 20 20 19 19 19 19 20 20 20 20 20 19 19 19 19 19 19 20 20 21 21 21 21 21 20 20 21 21 21 22 22 21 20 21
21 21 21 21 21 21 21 20 20 21 21 21 20 21 21 21 21 21 20 19 19 19 19 20 20 21 21 21 21 21 21 21 20 20 20 20 20 20 20 20 19 20 20
21 21 22 22 22 22 21 21 21 22 22 21 22 22 22 22 22 21 20 19 19 19 20 21 21 22 22 22 21 21 21 21 20 20 20 20 19 20 20 20 20 20 19
22 23 23 23 23 23 22 22 22 22 22 22 22 23 23 23 22 22 21 21 21 21 21 21 21 21 21 21 20 20 20 20 21 21 20 20 20 19 20 20 20 20 19
22 22 23 23 23 22 22 22 22 22 22 22 22 22 22 22 22 22 22 22 22 21 21 21 22 21 21 21 21 21 21 22 21 21 21 21 20 19 20 20 20 20 20
23 23 23 23 22 23 23 22 22 22 22 22 22 22 22 22 21 21 21 21 21 21 21 22 21 21 20 21 22 22 22 22 22 22 21 21 20 20 20 20 20 20 20
23 23 23 23 23 23 23 22 22 23 23 23 23 23 22 21 21 21 21 21 21 21 22 21 21 21 21 22 22 23 23 23 22 22 22 21 21 21 20 20 20 20 20
22 22 23 23 24 24 23 23 24 23 24 24 24 23 22 22 22 22 22 22 22 21 21 22 22 22 22 22 22 23 23 23 23 23 22 21 21 21 20 20 20 20 20
22 23 24 25 25 24 24 24 24 24 24 24 24 23 24 24 23 23 22 22 22 22 22 22 22 23 23 23 23 24 25 24 23 22 22 21 21 20 20 20 20 20 19
23 23 23 23 24 24 24 24 24 23 23 22 22 23 24 24 24 24 24 23 23 23 23 23 23 23 24 24 24 24 23 22 22 22 21 21 21 20 20 20 19 19 19
22 22 22 22 22 22 22 23 23 24 24 23 23 24 25 25 24 24 24 24 23 23 24 24 24 24 24 24 23 22 22 21 21 21 21 22 21 20 20 20 20 19 20
21 21 22 22 23 23 24 24 24 24 23 24 24 24 24 24 24 24 24 24 24 24 24 25 24 24 24 22 21 21 21 21 21 21 21 21 21 20 20 20 20 20 20
23 22 23 23 24 24 24 24 24 24 24 25 25 24 24 24 24 24 24 24 23 24 24 24 24 23 23 22 22 22 22 22 21 21 20 20 20 20 19 19 20 20 20
23 23 23 23 24 23 24 24 23 24 24 24 24 24 24 24 24 24 24 23 23 22 23 23 23 23 23 23 23 23 23 22 22 21 21 20 20 19 19 19 19 20 20
23 23 23 23 23 23 23 23 23 23 23 23 23 23 23 23 23 24 24 24 24 23 23 23 23 23 24 24 24 24 23 22 22 22 22 21 20 20 20 19 20 20 19
22 22 23 23 23 24 23 24 24 23 23 23 23 23 23 23 23 23 24 23 23 22 22 22 22 23 23 24 25 24 23 23 23 22 21 21 21 21 20 20 20 20 19
23 23 24 24 24 23 23 23 24 23 23 23 23 23 23 23 24 24 24 23 23 22 22 22 22 22 22 23 24 23 23 23 23 22 22 21 21 21 21 21 20 20 19
24 24 25 25 24 24 23 23 23 23 23 23 22 22 23 23 23 23 23 23 23 23 23 23 23 23 23 23 23 23 23 23 23 22 22 22 21 21 20 20 20 19 19
24 24 24 24 24 24 23 23 23 23 23 22 22 21 22 22 22 22 22 23 22 22 23 23 23 23 22 22 23 23 23 22 22 22 22 22 22 21 21 20 21 21 21
23 23 23 23 23 23 23 23 23 22 22 22 21 21 22 22 23 23 23 22 22 21 21 21 22 23 23 23 23 23 23 22 22 22 22 22 21 21 21 21 21 21 21
24 24 23 23 23 23 24 24 23 22 22 21 22 22 22 22 22 23 23 22 22 22 22 21 21 21 22 24 24 23 23 22 22 22 22 22 22 22 22 22 22 22 22
24 24 24 24 23 24 24 24 23 23 22 22 22 21 21 21 21 21 21 21 22 22 22 21 21 21 21 22 23 23 23 22 22 22 22 22 22 23 23 23 22 22 22